Flag for Brazil Weather past 2 weeks in Belém, Para, Brazil

Now
81 °F

Light rain. Partly sunny.


Feels Like: 86 °F
Forecast: 75 / 85 °F
Wind: 8 mph from Northeast

Location: Belem Aeroporto

Current Time: Jan 31, 2015 at 1:43:29 PM

Latest Report: Jan 31, 2015 at 1:00 PM


Visibility: N/A

Pressure: 29.86 "Hg

Humidity: 84%

Dew point: 75 °F

Location of BelémLocation

Historic Weather in Belém — Graph

°F

Belém temperature yesterday

Maximum temperature yesterday: 88 °F (at 12:00 PM)
Minimum temperature yesterday: 75 °F (at 2:00 AM)
Average temperature yesterday: 80 °F

Past Weeks' High & Low Weather Summary

 TemperatureHumidityPressure
High90 °F (Jan 22, 1:00 PM)100% (Jan 16, 6:00 PM)29.95 "Hg (Jan 16, 6:00 PM)
Low39 °F (Jan 28, 5:00 PM)55% (Jan 27, 1:00 PM)29.77 "Hg (Jan 20, 4:00 PM)
Average79 °F84%29.86 "Hg
* Reported Jan 16 12:00 Noon — Jan 31 12:00 Noon, Belém, Weather by CustomWeather, © 2014

Note: Actual official high and low records may vary slightly from our data, if they occured in-between our weather recording intervals... More about our weather records

Advertising

Belém weather history for previous 24 hours

 ConditionsComfort  
Time TempWeatherWind HumidityBarometerVisibility
12:00 PM
Jan 31
86 °FPartly sunny.9 mph66%29.89 "HgN/A
11:00 AM86 °FPartly sunny.13 mph66%29.89 "HgN/A
10:00 AM84 °FScattered clouds.13 mph74%29.89 "HgN/A
9:00 AM82 °FScattered clouds.10 mph79%29.89 "HgN/A
8:00 AM79 °FPassing clouds.6 mph89%29.86 "HgN/A
7:00 AM75 °FPassing clouds.3 mph94%29.83 "HgN/A
6:00 AM75 °FPassing clouds.3 mph94%29.83 "HgN/A
5:00 AM75 °FClear.3 mph94%29.80 "Hg10 mi
4:00 AM75 °FClear.3 mph94%29.80 "Hg10 mi
3:00 AM75 °FClear.3 mph94%29.83 "Hg10 mi
2:00 AM77 °FClear.6 mph89%29.83 "Hg10 mi
1:00 AM77 °FClear.5 mph89%29.83 "Hg10 mi
12:00 AM77 °FClear.7 mph89%29.86 "Hg10 mi
11:00 PM
Jan 30
77 °FClear.9 mph89%29.86 "Hg10 mi
10:00 PM77 °FClear.6 mph89%29.86 "Hg10 mi
9:00 PM79 °FClear.9 mph84%29.86 "Hg10 mi
8:00 PM81 °FClear.9 mph79%29.83 "Hg10 mi
7:00 PM81 °FPassing clouds.7 mph84%29.80 "HgN/A
6:00 PM82 °FScattered clouds.8 mph84%29.80 "HgN/A
5:00 PM82 °FScattered showers. Broken clouds.7 mph84%N/A6 mi
4:00 PM86 °FScattered showers. Partly sunny.14 mph70%N/AN/A
3:00 PM84 °FScattered clouds.14 mph74%29.80 "HgN/A
2:00 PM86 °FPartly sunny.14 mph70%29.83 "HgN/A
1:00 PM84 °FPartly sunny.13 mph70%29.83 "HgN/A
Weather by CustomWeather, © 2014

See weather overviewHow to use our weather pages